Weather History for KTCC - January, 2013

Change the Weather History Date:

Tuesday, January 8, 2013

  Actual Average Record
Temperature  
Mean Temperature 41 °F -  
Max Temperature 55 °F 48 °F 75 °F (1909)
Min Temperature 27 °F 20 °F -7 °F (1913)
Degree Days  
Heating Degree Days 24    
Moisture  
Dew Point 24 °F    
Average Humidity 59    
Maximum Humidity 78    
Minimum Humidity 34    
Precipitation  
Precipitation 0.00 in - - ()
Sea Level Pressure  
Sea Level Pressure 29.98 in    
Wind  
Wind Speed 7 mph (NW)    
Max Wind Speed 12 mph    
Max Gust Speed -    
Visibility 10 miles    
Events      
Averages and records for this station are not official NWS values.
T = Trace of Precipitation, MM = Missing Value Source: NWS Daily Summary

Daily Weather History Graph

Daily Weather History Graph

Search for Another Location

Airport or City:

Trip Planner

Search our weather history database for the weather conditions in past years. The results will help you decide how hot, cold, wet, or windy it might be!

Date:

Astronomy

Jan. 08, 2013 Rise Set
Actual Time 7:03 AM MST 4:59 PM MST
Civil Twilight 6:35 AM MST 5:27 PM MST
Nautical Twilight 6:04 AM MST 5:58 PM MST
Astronomical Twilight 5:33 AM MST 6:29 PM MST
Moon 3:39 AM MST (1/8) 2:03 PM MST (1/8)
Length of Visible Light 10h 51m
Length of Day
9h 56m
Waning Crescent, 13% of the Moon is Illuminated
Jan 8
Waning Crescent
Jan 11
New
Jan 18
First Quarter
Jan 26
Full
Feb 3
Last Quarter

Hourly Weather History & Observations

Time (MST) Temp. Windchill Dew Point Humidity Pressure Visibility Wind Dir Wind Speed Gust Speed Precip Events Conditions
12:53 AM 32.0 °F 24.2 °F 21.9 °F 66% 29.90 in 10.0 mi SW 9.2 mph - N/A   Clear
1:53 AM 30.0 °F 21.7 °F 21.9 °F 72% 29.89 in 10.0 mi SSW 9.2 mph - N/A   Clear
2:53 AM 28.9 °F 23.9 °F 21.0 °F 72% 29.89 in 10.0 mi NNW 4.6 mph - N/A   Clear
3:53 AM 27.0 °F 23.0 °F 21.0 °F 78% 29.89 in 10.0 mi SSW 3.5 mph - N/A   Clear
4:53 AM 28.0 °F 21.7 °F 21.0 °F 75% 29.89 in 10.0 mi West 5.8 mph - N/A   Clear
5:53 AM 28.0 °F 24.2 °F 19.9 °F 72% 29.90 in 10.0 mi SW 3.5 mph - N/A   Clear
7:53 AM 30.0 °F - 23.0 °F 75% 29.96 in 10.0 mi Calm Calm - N/A   Clear
8:53 AM 36.0 °F 32.1 °F 25.0 °F 64% 29.97 in 10.0 mi WSW 4.6 mph - N/A   Clear
9:53 AM 39.9 °F - 26.1 °F 58% 29.96 in 10.0 mi Calm Calm - N/A   Clear
10:53 AM 46.9 °F - 28.0 °F 48% 29.93 in 10.0 mi West 8.1 mph - N/A   Clear
11:53 AM 46.9 °F - 27.0 °F 46% 29.91 in 10.0 mi WNW 9.2 mph - N/A   Clear
12:53 PM 48.9 °F - 27.0 °F 43% 29.88 in 10.0 mi NW 6.9 mph - N/A   Clear
1:53 PM 53.1 °F - 27.0 °F 37% 29.88 in 10.0 mi Calm Calm - N/A   Clear
2:53 PM 55.0 °F - 27.0 °F 34% 29.91 in 10.0 mi North 9.2 mph - N/A   Clear
3:53 PM 53.1 °F - 27.0 °F 37% 29.95 in 10.0 mi NNE 6.9 mph - N/A   Clear
5:53 PM 39.9 °F 33.9 °F 26.1 °F 58% 30.05 in 10.0 mi North 9.2 mph - N/A   Clear
6:53 PM 39.0 °F 31.8 °F 27.0 °F 62% 30.09 in 10.0 mi North 11.5 mph - N/A   Clear
7:53 PM 37.9 °F 30.5 °F 24.1 °F 57% 30.12 in 10.0 mi NNE 11.5 mph - N/A   Clear
8:53 PM 37.0 °F 29.3 °F 24.1 °F 59% 30.14 in 10.0 mi NNE 11.5 mph - N/A   Clear
10:53 PM 35.1 °F 26.9 °F 24.1 °F 64% 30.18 in 10.0 mi North 11.5 mph - N/A   Clear
11:53 PM 32.0 °F 24.2 °F 23.0 °F 69% 30.22 in 10.0 mi North 9.2 mph - N/A   Clear